Back to catalog

STARLINK-30777

AliveCommunicationsVLEO
NORAD 58233·PAYLOAD·🇺🇸 United States

Launched Nov 8, 2023 from Cape Canaveral Space Force Station

Loading…

Next Passes (next 24 hours)

TLE

FreshSource: CelesTrak SupGP

Epoch: Sep 14, 2026, 22:26 UTC

1 58233C 23171D   26257.93520833  .00015696  00000+0  56857-3 0  2577
2 58233  43.0003 296.8192 0001483 264.8353  77.9566 15.27566555    15

Track STARLINK-30777 in real time with AllMySat

Download on the App Store